Volver al catálogo

DELTA 1 DEB

ActivoSSO
NORAD 14472·DEBRIS·🇺🇸 United States

Lanzado Jul 29, 1976 desde Vandenberg Space Force Base

Loading…

Próximos Pases (próximas 24 horas)

TLE

ActualizadoSource: Space-Track

Época: Sep 14, 2026, 11:21 UTC

1 14472U 76077EP  26257.47297175 -.00000038  00000-0  71948-4 0  9994
2 14472 102.8425 244.9926 0155588  81.1699  68.8785 12.16370737944145

Sigue DELTA 1 DEB en tiempo real con AllMySat

Download on the App Store